Dewpoint
60 55 52 51 48 42 35 36 19 27 24 17 17 22 17 24 23 20 21 21 24 26 28 37 32 27 23 21 23 34 41 25 28 20 22 33 48 56 59 66 65 68 69 69 69 69 69 70 71 72 71 71 72 71 71 70 70 70 70 70 71 71 71 70 71 70 70 70 70 70 70 70 71 70 70 70 70 70 69 68 68 68 67 67 66 66 64 63 65 66 66 66 66 66 67 67 67
56 52 50 47 45 37 31 33 25 23 22 18 18 21 21 24 20 20 20 23 25 36 40 44 46 46 47 47 47 39 38 49 35 33 40 47 55 56 60 63 67 68 69 69 70 70 70 69 70 71 71 72 72 71 70 70 70 70 70 71 70 71 71 70 70 70 70 70 70 70 69 70 70 70 70 70 70 70 69 68 68 68 68 67 66 65 65 64 64 65 66 65 65 65 65 66 66
54 51 46 46 38 37 35 30 20 20 17 14 17 19 23 21 18 19 21 22 29 39 38 33 33 31 36 39 35 32 28 48 53 49 53 54 55 57 59 62 65 69 70 70 70 70 70 68 68 70 71 71 71 71 70 70 70 70 70 70 70 71 70 70 70 70 69 69 69 69 69 69 69 70 70 70 70 70 69 68 68 67 67 66 66 66 64 63 63 65 66 65 64 64 64 64 65
51 54 45 43 36 37 29 29 23 19 18 18 17 21 20 22 20 20 22 25 35 34 27 28 34 35 37 36 38 42 43 48 53 54 51 51 54 57 59 62 64 70 71 71 71 70 70 69 68 70 71 71 71 71 70 70 70 71 71 71 71 71 70 70 70 69 69 69 69 69 69 69 69 69 69 70 70 69 68 68 68 67 67 66 65 65 63 62 64 65 65 65 64 63 63 64 64
50 51 48 42 35 29 28 25 21 22 15 17 16 22 30 27 20 23 24 25 27 25 25 27 35 36 37 37 39 36 41 45 43 52 53 53 55 59 61 61 63 70 70 71 71 70 69 69 70 69 71 71 71 71 71 70 70 70 70 70 71 71 70 70 69 69 69 70 69 69 69 69 69 69 69 69 69 68 67 67 67 67 66 66 65 64 63 62 63 65 66 65 64 64 63 64 64
46 44 45 34 26 33 21 18 19 16 19 20 18 18 23 25 22 24 20 18 18 22 24 29 32 33 43 47 47 45 49 44 48 53 53 55 59 60 61 62 64 71 71 72 72 70 69 68 69 70 71 71 71 71 71 70 70 70 70 69 70 70 70 70 70 69 68 68 68 69 69 69 69 69 69 69 69 68 67 67 67 67 66 66 65 64 62 61 63 65 65 65 64 64 64 65 65
40 34 35 33 30 31 22 22 16 19 17 21 19 21 23 23 24 21 18 19 21 28 26 31 40 36 34 41 40 51 52 53 54 55 56 58 60 62 63 62 66 70 71 71 72 71 69 68 66 70 70 71 71 71 71 70 70 70 69 69 69 69 69 70 70 70 70 69 68 69 69 69 69 69 69 69 68 67 67 68 67 66 66 65 65 64 61 60 63 65 65 65 65 64 64 64 65
45 33 36 27 25 29 22 21 18 23 16 21 22 22 22 23 24 17 16 21 20 21 35 37 28 26 27 41 34 48 47 53 52 49 56 60 62 64 64 63 67 69 70 71 71 71 69 68 68 69 69 70 71 71 70 71 70 70 69 69 69 69 70 69 69 69 69 69 69 69 69 69 69 69 69 68 67 67 68 67 67 66 65 65 65 63 60 60 63 65 65 65 64 64 64 64 65
35 35 37 29 21 26 22 19 18 22 21 21 19 26 40 24 20 16 17 17 20 22 32 33 29 22 24 41 42 46 44 45 39 46 56 61 63 64 66 66 68 69 70 71 71 71 70 68 69 66 68 69 70 70 70 70 70 70 69 69 69 69 69 69 69 69 69 69 69 68 69 69 69 69 69 68 68 68 67 67 67 65 65 65 64 62 60 60 63 65 64 64 64 63 63 64 65
30 28 23 25 28 19 22 16 16 17 18 19 19 18 20 21 17 17 16 16 18 25 27 29 24 21 31 34 40 41 45 39 40 55 57 61 62 64 65 65 69 69 70 70 71 71 70 69 68 69 69 69 70 70 71 70 70 70 70 69 69 69 69 69 69 70 69 69 69 69 69 69 69 69 69 68 68 67 67 67 66 65 65 64 63 61 59 59 62 64 64 63 63 62 63 64 64
22 33 34 25 22 17 18 15 17 20 17 20 20 20 20 19 16 16 19 17 21 25 28 31 26 36 35 36 38 42 37 36 54 56 55 61 61 61 61 60 62 65 67 66 68 69 69 68 66 65 67 69 70 70 70 70 70 69 69 70 69 69 70 70 70 69 69 69 69 69 68 69 69 69 69 68 68 67 66 66 66 65 64 64 63 61 58 58 61 62 62 62 61 61 62 63 63
21 26 31 23 20 19 21 18 19 22 22 20 17 19 22 18 19 15 18 17 21 21 22 27 25 34 30 31 34 33 34 40 48 47 56 59 58 56 56 56 57 58 60 62 63 63 65 68 68 66 65 67 68 68 65 68 70 70 70 70 69 69 69 69 69 69 70 69 69 69 69 69 69 69 68 68 68 67 67 66 66 65 64 63 63 61 58 59 59 60 59 58 58 60 61 61 60
23 32 25 21 18 22 24 19 17 33 19 18 18 18 19 16 15 15 17 19 20 19 20 22 25 28 26 30 33 33 34 40 40 49 55 54 55 53 54 56 56 57 58 58 60 59 59 63 65 68 67 65 65 66 64 66 68 70 70 71 70 70 70 70 69 69 69 69 69 69 69 69 69 69 68 68 68 67 67 66 66 65 64 63 63 61 60 59 59 58 57 56 57 58 59 60 59
29 30 28 21 25 24 20 20 20 17 15 20 20 21 21 17 17 16 19 18 18 18 21 26 29 29 27 27 27 31 31 37 39 54 51 51 52 53 54 56 56 56 57 56 56 57 56 59 61 62 66 68 68 66 65 67 67 68 69 69 69 70 70 70 70 70 69 69 69 69 69 69 69 69 69 69 68 67 67 67 66 65 64 64 62 61 60 60 59 58 57 56 57 57 56 57 57
25 32 26 24 20 20 21 17 17 18 16 19 18 20 20 22 19 20 18 18 18 21 28 29 29 23 19 23 22 30 31 34 49 51 50 50 50 51 53 54 53 55 55 56 54 55 54 56 60 59 60 65 67 68 68 66 64 67 67 67 68 69 69 69 69 69 68 69 68 68 67 66 66 66 67 68 68 67 66 65 67 66 64 64 63 62 60 59 58 57 56 54 55 55 54 54 55
31 27 27 22 18 21 19 20 23 18 16 20 21 21 20 21 23 19 20 20 23 31 29 26 31 20 26 24 27 30 31 46 51 49 49 49 51 51 51 52 53 53 53 55 54 54 53 54 57 58 56 59 63 66 67 68 65 64 65 66 66 67 67 67 67 66 65 65 65 64 63 63 63 63 63 65 65 67 65 64 65 65 64 64 63 62 61 59 58 58 56 54 54 55 55 55 55
36 30 19 21 16 20 18 20 19 15 21 22 23 20 18 20 23 25 28 27 24 25 31 32 29 33 29 27 32 39 42 49 50 48 49 48 49 49 50 50 52 52 53 52 53 53 53 53 54 56 55 56 60 62 66 67 66 63 64 63 64 65 65 65 65 62 60 60 61 60 62 66 66 65 65 65 62 64 62 62 64 66 65 64 64 63 63 62 61 59 58 56 55 55 54 53 54
32 22 19 16 22 19 23 20 19 23 19 19 21 20 19 20 22 25 24 24 28 27 29 30 33 35 34 34 40 42 43 49 48 49 47 46 46 48 50 49 49 51 50 51 52 52 53 53 53 55 55 55 57 60 63 67 66 65 67 65 65 63 62 61 63 65 64 64 60 63 66 65 66 66 65 64 64 62 62 61 63 65 66 65 65 64 64 63 62 60 58 58 57 55 52 45 46
27 25 21 16 18 20 23 23 21 18 19 19 21 22 20 20 23 24 21 21 24 24 24 29 29 30 38 40 41 44 48 48 47 47 46 45 45 47 48 48 49 50 51 51 52 52 53 52 53 53 54 55 56 58 60 64 66 66 67 66 65 63 63 63 65 64 65 65 65 66 65 66 66 65 65 64 63 60 62 61 63 64 65 64 65 65 64 63 63 61 59 58 56 53 48 47 46
30 24 17 20 21 22 21 22 22 21 21 20 20 21 20 20 22 23 21 21 24 22 22 24 26 28 34 39 41 43 48 48 46 46 45 44 43 45 45 45 48 49 50 50 51 51 52 52 52 52 53 54 55 58 58 62 66 67 67 67 66 66 65 64 65 65 64 63 64 65 65 65 65 64 63 61 62 63 61 61 62 62 63 63 63 63 62 62 61 59 58 56 54 51 49 49 48
24 24 20 21 23 22 22 22 23 23 21 21 20 22 21 21 23 21 20 21 22 23 24 21 22 27 32 38 39 41 46 47 44 44 44 43 43 43 44 45 46 46 47 49 49 50 51 51 51 52 53 54 55 57 57 61 65 67 67 67 66 66 65 65 65 65 64 63 63 64 64 64 64 63 63 63 62 62 62 64 64 63 63 63 61 61 59 59 58 56 54 53 52 51 51 50 49
24 17 21 23 24 20 22 24 24 23 23 20 20 19 20 22 22 21 21 18 18 20 22 24 23 25 33 37 39 41 44 46 45 43 43 43 44 44 45 45 47 46 46 47 47 48 49 50 51 52 53 54 56 56 57 62 64 67 66 66 66 66 65 65 65 65 65 65 64 63 63 64 63 63 63 63 62 62 62 62 62 62 62 62 61 61 59 60 58 57 55 54 53 52 51 51 51
18 21 23 22 22 19 21 24 25 21 20 20 19 20 22 21 21 22 21 19 19 22 25 26 26 28 34 39 41 41 42 44 44 44 43 43 43 43 44 45 45 46 45 46 47 47 49 49 49 52 53 56 57 57 61 64 64 65 65 65 65 64 64 64 64 64 64 64 64 64 63 63 62 62 62 62 62 62 61 61 62 62 61 61 62 61 59 59 58 57 57 56 54 54 53 53 52
23 19 22 23 24 21 24 24 25 22 20 20 20 22 21 21 20 22 21 21 20 26 31 31 30 34 39 39 41 41 42 43 43 43 42 43 43 44 45 46 46 43 45 46 47 48 49 50 50 50 54 57 57 61 63 63 63 63 62 62 62 62 62 62 62 63 62 62 62 63 62 62 61 61 61 60 60 60 60 60 60 61 60 60 60 60 58 58 58 57 56 55 55 54 54 53 53
23 22 25 24 24 23 25 24 23 22 22 24 23 21 21 21 20 22 21 21 27 33 35 37 38 38 38 39 40 41 41 40 41 41 42 42 42 43 43 42 44 45 47 47 48 49 51 52 52 52 56 57 59 62 62 61 61 61 60 60 60 59 61 61 61 61 61 61 61 61 61 61 61 60 60 59 59 58 58 58 59 59 59 59 59 59 58 58 57 57 56 56 55 54 53 53 52
26 24 25 24 24 25 25 24 24 24 24 24 21 21 22 24 24 22 22 22 29 34 36 37 38 38 38 39 40 40 41 41 41 42 42 41 41 43 43 43 44 47 47 49 48 49 51 52 53 55 57 58 62 61 60 58 58 57 57 58 58 57 58 57 58 59 60 60 60 60 60 60 60 59 59 58 57 57 56 56 56 56 57 57 57 56 56 56 55 55 54 54 51 51 50 51 51
25 25 25 24 24 25 26 24 24 25 26 25 21 21 22 24 22 19 24 28 32 34 35 35 36 37 37 38 39 40 41 41 42 41 41 40 41 42 43 43 45 47 48 48 49 50 51 52 54 58 58 60 60 58 57 56 56 55 55 57 57 56 56 56 56 56 57 57 58 58 58 58 58 57 56 56 55 54 54 53 53 52 52 53 53 51 51 52 52 51 49 49 48 48 48 50 50
25 25 25 25 26 26 26 25 24 24 23 24 22 21 24 23 24 21 23 29 32 32 33 34 35 36 36 37 38 39 40 40 41 40 42 41 43 42 43 44 45 47 48 48 50 50 51 51 54 58 57 56 56 55 54 54 54 54 54 54 55 55 55 55 55 55 54 54 54 55 55 55 55 54 54 53 52 51 50 49 47 46 45 45 45 45 44 44 44 45 46 46 46 46 47 48 47
25 26 24 24 25 24 25 24 25 24 23 24 23 23 22 22 21 23 25 30 30 31 32 33 34 34 35 35 37 38 40 40 40 40 42 42 41 42 44 45 46 46 48 48 48 50 51 51 52 53 53 53 54 53 52 52 51 51 52 52 53 53 55 54 52 52 53 52 51 52 51 52 52 52 51 50 49 48 46 44 42 41 39 39 39 39 39 39 39 40 41 42 44 45 46 45 45
26 25 24 23 24 22 24 26 24 24 24 24 24 20 22 22 22 24 29 29 29 30 30 31 32 32 33 34 35 37 38 38 40 41 40 40 41 42 44 45 46 47 49 48 49 50 50 51 51 51 51 51 51 51 51 50 49 49 48 50 51 52 52 51 50 50 49 49 51 49 51 49 49 49 48 47 46 44 43 41 39 38 36 35 35 35 35 36 37 38 40 41 43 43 43 42 40
24 25 26 23 19 21 23 25 24 23 25 25 23 21 20 22 23 24 28 29 28 28 28 29 30 31 32 33 34 35 37 39 40 40 39 39 40 40 43 46 47 47 48 48 49 49 48 49 50 49 50 51 51 50 50 49 48 48 48 47 49 48 47 47 47 48 48 45 46 49 46 46 46 46 46 45 43 42 40 39 38 37 35 33 32 32 32 32 34 36 40 40 40 39 39 39 37
28 19 20 24 19 23 26 30 24 22 22 23 23 22 21 22 23 24 28 29 28 27 27 28 29 30 30 32 33 34 35 37 37 38 39 39 39 41 43 46 46 46 47 48 48 48 47 48 48 49 48 49 49 49 47 48 46 46 47 46 46 47 49 45 45 45 47 47 45 42 42 43 43 43 43 42 41 40 38 37 36 36 34 33 33 32 31 32 33 35 36 39 38 37 36 35 34
26 19 20 21 23 23 22 24 25 25 22 23 23 21 21 21 23 26 28 28 28 27 26 27 27 28 29 30 32 33 34 35 36 37 37 38 39 41 43 46 45 45 47 48 47 47 47 48 47 47 47 47 47 46 45 44 44 44 43 44 43 46 46 43 43 43 40 40 41 42 41 40 40 41 40 39 38 37 36 34 34 33 31 29 29 29 30 32 35 36 36 37 36 35 33 32 31
23 24 21 25 23 23 21 24 26 26 22 21 22 21 21 22 23 27 28 28 28 27 26 26 27 27 28 30 31 32 33 34 35 36 36 37 39 41 43 45 45 45 48 47 47 47 46 47 46 45 45 44 45 46 42 42 40 41 41 42 41 39 42 40 34 38 37 36 36 36 38 39 38 38 37 36 34 33 32 30 29 28 27 27 27 27 28 30 33 35 33 34 35 33 31 30 28
19 22 23 23 24 23 22 23 24 22 21 21 21 21 21 22 22 23 27 28 27 27 26 26 26 26 27 28 29 31 32 33 34 36 36 37 38 41 43 44 43 45 47 46 46 46 46 45 44 43 42 42 42 43 41 40 41 37 37 36 38 38 38 37 37 31 32 32 33 34 34 34 35 35 35 33 29 28 28 27 26 26 25 25 26 27 29 31 32 32 31 30 31 32 31 28 25
23 25 24 24 21 22 23 25 26 22 21 20 21 21 21 21 22 22 24 27 27 27 27 27 26 26 26 27 28 30 31 32 34 36 36 37 39 42 43 44 44 46 47 45 45 45 45 43 43 42 40 40 40 40 41 41 41 40 35 33 32 33 32 33 30 30 30 31 34 33 32 33 34 32 31 30 27 26 26 25 25 26 24 25 27 27 28 30 31 30 30 29 28 28 28 29 26
26 25 24 23 23 24 25 27 27 27 22 21 21 21 21 22 22 23 23 26 27 27 26 26 26 26 26 26 27 28 30 31 34 36 36 36 38 42 44 43 44 46 46 45 45 44 44 43 41 40 39 38 39 39 39 40 40 40 42 38 32 30 29 30 30 30 29 30 33 32 31 31 31 30 29 28 27 28 25 25 25 25 25 25 25 25 25 26 28 29 29 30 28 26 25 25 26
25 25 24 24 25 24 25 25 27 27 24 23 23 22 22 22 22 23 23 25 24 25 25 26 25 26 26 26 27 27 28 32 34 35 35 36 38 41 43 42 44 46 45 44 44 44 43 42 41 39 39 39 38 38 39 39 39 40 39 35 34 34 30 28 28 28 30 31 30 31 30 29 29 28 27 26 25 24 24 24 24 24 24 24 25 25 25 28 24 25 25 23 22 24 22 24 25
25 24 25 24 25 26 26 26 27 27 24 23 24 23 23 24 24 24 23 23 23 24 25 24 25 25 26 26 27 27 29 31 34 34 35 35 37 40 42 42 44 46 45 44 44 44 42 41 41 39 39 40 40 39 39 37 35 32 33 31 31 30 29 28 28 28 28 27 27 28 28 28 27 26 26 26 24 24 23 23 23 23 22 23 20 20 20 20 20 21 24 23 19 22 22 23 22
25 24 24 24 26 23 20 24 28 25 24 24 25 25 25 26 26 26 26 25 24 25 24 25 26 25 25 26 26 27 27 29 32 33 34 35 37 40 42 42 43 45 44 43 43 43 42 41 39 39 39 39 38 37 34 32 32 31 29 27 27 27 26 27 25 25 25 25 25 27 27 26 26 25 25 25 24 23 22 21 21 21 21 22 19 18 18 18 18 18 18 19 18 15 18 19 23
26 26 25 25 25 26 23 21 27 29 28 28 27 27 27 27 26 26 27 30 29 27 27 28 28 28 27 29 29 28 27 28 31 33 34 35 36 39 41 42 43 45 44 43 43 43 42 41 39 39 38 36 34 33 31 30 30 30 27 25 25 23 23 23 23 24 25 26 24 24 25 25 25 25 24 24 24 22 22 21 20 20 20 21 19 18 18 19 19 19 18 15 14 13 16 17 19
26 27 27 26 26 25 25 26 25 25 25 27 26 22 24 25 27 28 28 30 30 30 29 29 29 29 29 28 27 28 31 29 30 32 34 35 35 38 41 42 43 44 44 44 43 43 42 41 39 39 37 35 31 30 29 29 29 27 25 25 24 23 22 22 22 21 21 22 23 24 24 25 25 24 24 24 24 23 21 21 20 19 20 20 21 20 20 19 18 17 16 12 11 12 11 14 15
24 25 28 27 26 26 25 25 25 22 20 25 27 21 22 24 24 25 28 29 29 29 30 30 30 30 30 30 30 29 28 29 31 32 34 34 35 38 40 42 43 44 44 43 43 42 42 40 39 37 35 34 32 30 31 31 28 28 28 28 26 25 22 24 23 23 22 23 23 22 23 24 24 23 23 23 23 23 21 21 20 20 20 21 22 19 19 19 20 19 19 14 14 17 10 10 10
24 27 28 28 26 26 26 25 26 25 25 27 28 26 24 24 25 27 29 28 28 29 29 30 30 30 31 31 31 30 29 29 31 32 33 34 35 38 40 42 43 43 43 42 42 41 40 39 37 35 34 33 32 31 32 32 29 29 30 29 27 24 22 20 21 23 23 23 21 22 22 23 23 23 23 23 23 22 21 21 20 20 20 21 22 20 21 22 22 23 21 20 19 15 8 7 14
27 29 29 28 27 27 26 26 25 26 25 25 26 27 24 24 27 28 29 28 28 29 29 30 30 31 31 31 31 31 30 30 31 32 33 34 35 37 40 42 43 43 42 41 41 40 38 37 35 34 33 32 31 30 31 31 32 31 29 26 24 22 21 21 24 25 22 23 21 21 21 22 22 23 23 23 23 23 23 20 20 20 21 22 22 21 20 20 19 18 18 17 17 19 18 17 12
28 30 30 29 28 27 26 26 26 25 24 24 26 27 20 22 25 26 27 27 28 28 27 27 28 30 31 32 33 31 30 30 32 32 33 34 35 37 40 42 43 42 41 41 39 37 36 36 34 33 32 31 31 30 31 30 30 30 29 25 22 21 22 23 21 22 20 20 19 20 20 21 21 22 22 22 21 22 21 21 20 20 20 22 22 20 20 20 20 20 19 19 19 19 20 17 16
32 31 31 29 27 26 24 25 24 22 20 25 27 27 24 21 24 24 24 27 28 28 27 27 29 30 31 31 32 32 30 31 32 33 34 34 35 37 39 41 42 41 40 39 37 36 35 35 34 33 32 31 30 31 31 29 25 25 25 23 21 20 21 20 20 19 19 19 18 19 19 20 21 21 22 21 21 21 21 22 20 21 22 23 21 19 19 20 21 21 21 21 20 21 21 22 22
32 29 28 29 27 21 21 17 21 19 21 21 24 27 26 22 24 26 27 29 29 27 26 26 28 29 30 31 31 31 31 31 32 33 33 34 35 36 38 40 41 40 39 38 36 35 34 34 33 33 31 30 28 28 28 28 26 24 23 22 21 20 19 19 17 17 18 17 17 17 19 20 20 21 20 20 21 21 22 22 22 20 20 19 19 20 20 20 20 19 19 19 19 20 20 20 18
31 29 28 22 18 18 12 15 17 18 18 19 22 26 25 26 24 26 28 29 29 29 29 29 29 29 30 31 31 31 31 31 32 33 33 34 35 36 37 40 40 39 38 37 36 35 34 33 32 31 29 28 28 26 24 23 23 22 22 21 21 20 19 17 16 16 17 16 16 17 18 17 19 19 19 18 20 20 21 19 19 18 19 20 20 20 20 20 19 19 18 18 18 18 18 18 17
30 29 27 21 15 15 13 12 7 13 17 20 23 25 24 25 26 29 28 28 29 30 31 31 30 30 30 31 31 31 31 32 32 33 34 34 35 36 37 39 39 39 39 37 35 34 33 33 31 31 28 27 26 25 23 21 21 21 21 21 20 20 18 16 16 16 16 16 17 16 16 16 16 15 17 17 20 20 20 20 19 20 20 21 20 20 20 20 19 18 18 18 18 18 18 18 19
30 29 28 26 20 16 11 10 9 13 15 19 21 18 20 20 23 27 30 30 31 31 31 32 32 32 32 30 29 29 30 31 32 33 33 34 35 36 37 39 39 39 39 37 35 34 33 32 31 30 28 26 25 24 22 21 21 21 21 20 20 19 18 16 16 17 15 16 17 16 15 16 15 16 17 18 21 20 20 20 20 20 20 20 21 20 21 20 20 19 19 19 19 18 18 19 18
28 29 29 23 23 21 11 14 11 12 15 16 16 22 23 24 27 28 29 29 29 29 29 30 30 31 30 30 30 30 31 32 32 32 33 34 35 35 36 37 38 39 39 38 35 33 33 32 30 30 28 26 25 24 22 20 20 20 20 19 19 19 19 17 19 19 16 16 16 15 15 15 16 17 19 20 21 20 20 21 21 20 21 21 21 20 20 19 19 18 18 18 19 20 18 18 18
26 29 26 28 27 21 16 17 15 15 12 20 15 24 25 27 26 27 28 28 28 28 28 28 28 29 28 29 29 30 31 32 32 32 33 34 34 35 36 37 38 38 38 38 36 33 32 32 30 29 28 26 25 23 22 20 20 20 19 19 19 19 18 16 16 16 16 16 16 15 15 15 17 18 21 21 21 20 20 20 20 20 20 20 20 19 19 19 18 18 17 17 17 18 18 17 17
29 25 28 29 28 28 22 17 15 16 18 18 19 20 23 21 21 25 26 27 27 28 28 28 28 28 28 29 29 30 31 31 32 32 32 33 34 34 35 36 37 38 38 38 36 34 32 32 30 29 28 26 24 23 21 20 19 19 19 19 18 18 17 16 17 16 16 16 16 16 16 17 17 20 21 22 20 20 20 21 19 19 19 19 18 18 18 17 17 17 16 16 17 17 17 17 17
30 28 30 26 21 20 25 19 17 12 15 19 19 21 23 24 23 23 23 26 26 27 28 28 28 28 29 29 28 29 29 30 31 31 32 33 34 34 35 35 36 36 37 37 36 34 32 31 30 29 27 26 24 23 21 20 20 21 21 19 18 18 18 17 17 17 17 15 15 15 16 16 19 21 21 20 19 19 19 19 19 18 18 18 17 16 16 16 15 15 15 15 16 16 15 15 16
30 31 29 29 28 19 21 24 18 19 12 11 18 17 19 26 26 25 24 25 27 26 27 27 28 28 28 29 29 29 30 31 31 31 32 33 33 34 34 35 35 36 36 36 35 33 32 31 29 28 27 25 23 22 21 20 20 20 21 19 19 19 19 18 18 17 16 15 15 16 16 17 19 21 20 19 19 19 18 18 17 17 17 17 15 15 15 14 13 13 13 13 13 13 13 14 15
28 28 27 28 24 27 27 23 22 20 9 11 13 19 20 25 27 26 26 26 26 27 27 28 29 29 29 29 29 30 30 31 31 31 32 32 33 33 34 34 34 34 34 35 34 32 32 31 29 28 27 25 23 22 21 20 20 20 20 19 19 19 19 19 18 17 16 15 16 17 17 18 20 19 19 18 18 18 18 17 16 17 16 15 14 13 13 11 11 10 10 11 11 12 12 13 13
30 29 28 29 27 23 20 22 25 17 18 20 12 19 22 26 28 27 26 27 27 28 28 28 29 29 29 29 29 30 30 30 31 31 31 32 32 32 32 33 33 33 33 33 32 32 31 30 30 28 27 25 23 22 21 21 21 21 20 19 19 20 20 20 18 17 16 16 17 17 18 19 19 19 18 18 17 17 17 16 15 15 14 14 12 11 10 9 9 8 9 10 10 10 11 12 11